Location: Winthrop
(48.4780°N, 120.1850°W)
Time: 03:21:03
(UTC-08:00)

Vanguard 1 Rocket - Pass Details

Date: 29 November 2023
Orbit: 654 x 4218 km, 34.3° (Epoch: 24 February)

Event Time Altitude Azimuth Distance (km) Brightness Sun altitude
Rises 10:53:02 0° 264° (W) 5,101 11.2 18.9°
Reaches altitude 10° 10:58:09 10° 248° (WSW) 3,447 10.5 19.1°
Maximum altitude 11:03:10 18° 209° (SSW) 2,305 10.4 19.2°
Drops below altitude 10° 11:06:55 10° 167° (SSE) 2,447 12.1 19.4°
Sets 11:09:44 0° 146° (SE) 3,147 11.4 19.4°
